Content
SEND FEEDBACK

Daily
Averages
Monthly
Summary
United States of America

VERNON, VERMONT


Home > North America > United States > Vermont
Elevation: 238 feet     Latitude: 42 46N     Longitude: 072 31W

WEATHER
 
SELECT A DAY
Number of Records: 452,771;   Date Range: 1/1/95 - 10/20/14
 
SHARE

PRINT THIS DATA

[ ← Previous Day ]
WEATHER ALMANAC - JANUARY 12, 2014
[ Next Day → ]
[ °C ]   °F
Weather ElementAverageHighLow
Temperature21.1 °F46.4 °F (12:35 am) (1:55 am)
Dewpoint13.8 °F39.2 °F (12:35 am) (7:00 pm)
Humidity58.9 %87 % (2:55 am)49 % (2:55 pm)
Barometer29.64 in29.96 in (11:55 pm)29.33 in (12:35 am)
Wind Speed7.1 mph15 mph (11:55 am)
Wind Gust25.3 mph (5:15 pm)
Weather ElementAverage
Visibility10 mi
Wind DirectionWSW (252.3 °)

Weather ElementTotal
Precipitation0.07 in
Heating Degree Days41.8 (Base 65)
Averaged from 71 records on January 12, 2014
WEATHER CONDITIONS BREAKOUT
WIND DIRECTION BREAKOUT
WEATHER BY HOUR - JANUARY 12, 2014
[ °C ]   °F
Local TimeTemperatureDewpointHumidityBarometerVisibilityWind DirectionWind SpeedGust SpeedPrecipitationEventsConditions
12:35 AM46.4 °F39.2 °F76 %29.33 in10.0 miWSW (240°)9.2 mph0.02 inOvercast
12:55 AM44.6 °F37.4 °F76 %29.33 in10.0 miCalm0.03 inOvercast
1:15 AM44.6 °F35.6 °F71 %29.35 in10.0 miSouth (180°)4.6 mphOvercast
1:35 AM42.8 °F35.6 °F76 %29.35 in10.0 miSouth (170°)4.6 mph0.01 inOvercast
1:55 AM0.0 °F0.0 °F29.36 in10.0 miWest (260°)4.6 mph0.01 inOvercast
2:15 AM39.2 °F33.8 °F81 %29.37 in10.0 miCalmOvercast
2:35 AM39.2 °F33.8 °F81 %29.38 in10.0 miSSW (210°)3.5 mphOvercast
2:55 AM37.4 °F33.8 °F87 %29.39 in10.0 miSouth (190°)4.6 mphOvercast
3:15 AM42.8 °F33.8 °F70 %29.39 in10.0 miWSW (240°)4.6 mphMostly Cloudy
3:35 AM42.8 °F32.0 °F66 %29.38 in10.0 miSSW (210°)4.6 mphScattered Clouds
3:55 AM41.0 °F30.2 °F65 %29.40 in10.0 miSSW (210°)3.5 mphMostly Cloudy
4:15 AM0.0 °F0.0 °F29.39 in10.0 miWSW (250°)5.8 mphMostly Cloudy
4:35 AM0.0 °F0.0 °F29.40 in10.0 miWSW (240°)4.6 mphMostly Cloudy
4:55 AM0.0 °F0.0 °F29.41 in10.0 miWSW (250°)4.6 mph16.1 mphOvercast
5:15 AM0.0 °F0.0 °F29.43 in10.0 miWSW (250°)4.6 mphMostly Cloudy
5:35 AM0.0 °F0.0 °F29.44 in10.0 miWest (260°)6.9 mphMostly Cloudy
5:55 AM0.0 °F0.0 °F29.44 in10.0 miWest (270°)6.9 mphOvercast
6:15 AM0.0 °F0.0 °F29.45 in10.0 miWSW (250°)6.9 mphOvercast
6:35 AM0.0 °F0.0 °F29.46 in10.0 miWest (260°)6.9 mphOvercast
6:55 AM0.0 °F0.0 °F29.47 in10.0 miWest (280°)5.8 mphOvercast
7:15 AM0.0 °F0.0 °F29.48 in10.0 miWNW (290°)8.1 mphOvercast
7:35 AM0.0 °F0.0 °F29.50 in10.0 miWest (270°)5.8 mphOvercast
7:55 AM0.0 °F0.0 °F29.51 in10.0 miWest (280°)4.6 mphOvercast
8:15 AM0.0 °F0.0 °F29.52 in10.0 miWNW (290°)9.2 mphOvercast
8:35 AM0.0 °F0.0 °F29.54 in10.0 miWest (280°)4.6 mphOvercast
8:55 AM0.0 °F0.0 °F29.55 in10.0 miWest (260°)5.8 mphOvercast
9:15 AM0.0 °F0.0 °F29.56 in10.0 miWNW (290°)5.8 mphOvercast
9:35 AM0.0 °F0.0 °F29.56 in10.0 miWest (270°)10.4 mph16.1 mphOvercast
9:55 AM0.0 °F0.0 °F29.57 in10.0 miWest (270°)4.6 mphOvercast
10:15 AM0.0 °F0.0 °F29.58 in10.0 miWest (260°)6.9 mph17.3 mphOvercast
10:35 AM0.0 °F0.0 °F29.59 in10.0 miWest (280°)8.1 mph16.1 mphOvercast
10:55 AM0.0 °F0.0 °F29.59 in10.0 miNW (320°)8.1 mph18.4 mphOvercast
11:15 AM0.0 °F0.0 °F29.59 in10.0 miNW (310°)8.1 mphOvercast
11:35 AM0.0 °F0.0 °F29.58 in10.0 miNW (310°)12.7 mph19.6 mphOvercast
11:55 AM0.0 °F0.0 °F29.59 in10.0 miWNW (290°)15.0 mph21.9 mphOvercast
12:15 PM0.0 °F0.0 °F29.60 in10.0 miWest (280°)5.8 mphOvercast
12:35 PM41.0 °F26.6 °F57 %29.61 in10.0 miWest (270°)6.9 mphOvercast
12:55 PM0.0 °F0.0 °F29.61 in10.0 miWest (260°)15.0 mph21.9 mphOvercast
1:15 PM41.0 °F24.8 °F53 %29.63 in10.0 miWest (270°)9.2 mphOvercast
1:35 PM41.0 °F24.8 °F53 %29.64 in10.0 miWest (270°)11.5 mph17.3 mphOvercast
1:55 PM0.0 °F0.0 °F29.65 in10.0 miWNW (300°)8.1 mph24.2 mphOvercast
2:15 PM0.0 °F0.0 °F29.66 in10.0 miWNW (300°)12.7 mph21.9 mphOvercast
2:35 PM0.0 °F0.0 °F29.66 in10.0 miWNW (290°)13.8 mph20.7 mphOvercast
2:55 PM42.8 °F24.8 °F49 %29.68 in10.0 miWest (270°)11.5 mph18.4 mphOvercast
3:15 PM41.0 °F24.8 °F53 %29.71 in10.0 miWest (260°)8.1 mphOvercast
3:35 PM39.2 °F24.8 °F56 %29.72 in10.0 miSW (230°)9.2 mphOvercast
3:55 PM39.2 °F24.8 °F56 %29.74 in10.0 miWest (260°)9.2 mph18.4 mphOvercast
4:15 PM39.2 °F24.8 °F56 %29.75 in10.0 miWest (260°)8.1 mphOvercast
4:35 PM39.2 °F24.8 °F56 %29.77 in10.0 miWest (260°)9.2 mph16.1 mphOvercast
4:55 PM39.2 °F23.0 °F52 %29.80 in10.0 miWest (270°)9.2 mph20.7 mphOvercast
5:15 PM39.2 °F21.2 °F49 %29.81 in10.0 miWest (280°)11.5 mph25.3 mphOvercast
5:35 PM39.2 °F23.0 °F52 %29.81 in10.0 miWNW (290°)10.4 mph18.4 mphOvercast
5:55 PM39.2 °F21.2 °F49 %29.83 in10.0 miWNW (290°)9.2 mph23.0 mphOvercast
6:15 PM37.4 °F21.2 °F52 %29.84 in10.0 miWest (280°)10.4 mph16.1 mphOvercast
6:35 PM37.4 °F21.2 °F52 %29.85 in10.0 miWest (280°)5.8 mphOvercast
6:55 PM37.4 °F21.2 °F52 %29.86 in10.0 miWest (270°)9.2 mphOvercast
7:15 PM37.4 °F21.2 °F52 %29.87 in10.0 miSW (220°)8.1 mphOvercast
7:35 PM37.4 °F21.2 °F52 %29.88 in10.0 miWest (270°)10.4 mphOvercast
7:55 PM37.4 °F21.2 °F52 %29.88 in10.0 miWest (260°)4.6 mph18.4 mphOvercast
8:15 PM0.0 °F0.0 °F29.89 in10.0 miWest (270°)4.6 mphOvercast
8:35 PM37.4 °F21.2 °F52 %29.90 in10.0 miWest (270°)6.9 mph17.3 mphOvercast
8:55 PM0.0 °F0.0 °F29.91 in10.0 miWest (260°)5.8 mphOvercast
9:15 PM37.4 °F21.2 °F52 %29.92 in10.0 miWest (260°)4.6 mphOvercast
9:35 PM37.4 °F21.2 °F52 %29.93 in10.0 miWest (260°)4.6 mphOvercast
9:55 PM37.4 °F21.2 °F52 %29.93 in10.0 miWest (260°)3.5 mphOvercast
10:15 PM37.4 °F21.2 °F52 %29.94 in10.0 miWest (260°)3.5 mphOvercast
10:35 PM0.0 °F0.0 °F29.94 in10.0 miWSW (250°)4.6 mphOvercast
10:55 PM37.4 °F21.2 °F52 %29.95 in10.0 miSW (230°)3.5 mphOvercast
11:15 PM35.6 °F21.2 °F56 %29.95 in10.0 miSW (220°)4.6 mphOvercast
11:35 PM35.6 °F23.0 °F60 %29.94 in10.0 miSouth (180°)5.8 mphOvercast
11:55 PM33.8 °F21.2 °F60 %29.96 in10.0 miSSW (210°)6.9 mphOvercast
Hourly data recorded from KEEN, located miles away from Vernon, Vermont







STORIES FROM OUR PARTNERS